Regional Weather Roundup
Issued by NWS

Home | Current Version | Previous Version | Text Only | Print | Product List | Glossary Off
Versions: 1 2 3 4 5 6 7 8 9 10 11 12 13 14 15 16 17 18 19 20 21 22 23 24 25 26 27 28 29 30 31 32 33 34 35 36 37 38 39 40 41 42 43 44 45 46 47 48 49 50

000
ASUS43 KMKX 290400
RWRWI

WISCONSIN REGIONAL WEATHER ROUNDUP
NATIONAL WEATHER SERVICE MILWAUKEE/SULLIVAN WI
1100 PM CDT WED SEP 28 2016

NOTE: "FAIR" INDICATES FEW OR NO CLOUDS BELOW 12,000 FEET WITH NO
SIGNIFICANT WEATHER AND/OR OBSTRUCTIONS TO VISIBILITY.

WIZ001-002-006>008-014>016-023>028-290500-
NORTHWEST WISCONSIN

CITY           SKY/WX    TMP DP  RH WIND       PRES   REMARKS
SUPERIOR ARPT  CLOUDY    53  51  92 NE5       30.39S
ASHLAND        CLOUDY    50  48  93 CALM      30.39R
HAYWARD        CLEAR     46  44  93 E3        30.38R
SIREN          CLOUDY    49  47  95 N3        30.38R
CUMBERLAND     CLEAR     50  45  81 NE6       30.36S
RICE LAKE      MOCLDY    53  47  82 N5        30.37R HAZE
CHETEK         NOT AVBL
LADYSMITH      CLOUDY    55  51  88 N9        30.37R
EAU CLAIRE     NOT AVBL
MENOMONIE      CLEAR     52  49  87 NW5       30.35R
NEW RICHMOND   CLEAR     51  49  92 NE7       30.36R
OSCEOLA        CLEAR     50  50 100 N3        30.39R
$$

WIZ003>005-009-010-017-018-290500-
NORTH CENTRAL WISCONSIN

CITY           SKY/WX    TMP DP  RH WIND       PRES   REMARKS
MANITOWISH WTR NOT AVBL
ARBOR VITAE    MOCLDY    54  50  87 NE5       30.35S
WOODRUFF       MOCLDY    54  50  87 NE5       30.35S
RHINELANDER    PTCLDY    51  50  96 NE7       30.35R
EAGLE RIVER    MOCLDY    50  49  97 NE3       30.35R
LAND O LAKES   CLOUDY    52  50  92 NE6       30.38R
PHILLIPS       CLOUDY    52  51  97 N5        30.35R
TOMAHAWK       CLOUDY    51  48  88 N5        30.35R
MEDFORD        CLOUDY    52  52 100 NE8       30.33R
MERRILL        CLEAR     51  51 100 N6        30.33R
$$

WIZ029-030-035-036-043>047-290500-
CENTRAL WISCONSIN

CITY           SKY/WX    TMP DP  RH WIND       PRES   REMARKS
WAUSAU         CLEAR     53  49  86 N7        30.30R
MOSINEE        CLEAR     52  50  93 NE10      30.31R
MARSHFIELD     CLEAR     54  49  83 N8        30.31R
STEVENS POINT  PTCLDY    51  49  93 N8        30.29S
WAUPACA        CLEAR     54  52  94 N7        30.27R
WAUTOMA        CLEAR     53  50  89 N8        30.26R
WISC RAPIDS    CLEAR     52  50  93 NE8       30.30R
CAMP DOUGLAS   NOT AVBL
$$

WIZ011>013-019>022-031-037>040-048>050-290500-
NORTHEAST WISCONSIN

CITY           SKY/WX    TMP DP  RH WIND       PRES   REMARKS
ANTIGO         CLEAR     49  48  97 N5        30.32R
SHAWANO        CLEAR     56  52  87 N10       30.29R
OCONTO         NOT AVBL
STURGEON BAY   PTCLDY    58  55  90 N15       30.26R
GREEN BAY      CLEAR     55  54  96 N14       30.26R
MANITOWOC      NOT AVBL
APPLETON       CLEAR     54  52  94 N14       30.24R
CLINTONVILLE   CLEAR     54  50  87 N9        30.27R
OSHKOSH        CLEAR     55  51  86 N13       30.23R
$$

WIZ032>034-041-042-053>061-290500-
SOUTHWEST WISCONSIN

CITY           SKY/WX    TMP DP  RH WIND       PRES   REMARKS
LA CROSSE      CLEAR     56  52  86 N7        30.29R
SPARTA         MOCLDY    52  50  92 N6        30.30R
VIROQUA        CLEAR     50  49  96 N3        30.27R
BOSCOBEL       CLEAR     49  47  93 CALM      30.26R
PRAIRIE DU CHI CLEAR     54  47  77 CALM      30.26R
PLATTEVILLE    CLEAR     51  51 100 N7        30.23R
$$

WIZ056-057-062-063-064-067-068-290500-
SOUTH CENTRAL WISCONSIN

CITY           SKY/WX    TMP DP  RH WIND       PRES   REMARKS
REEDSBURG      NOT AVBL
BARABOO/DELLS  CLEAR     51  48  89 N3        30.24S
LONE ROCK      NOT AVBL
MINERAL POINT  CLEAR     52  50  93 NW5       30.23R
MADISON        CLEAR     51  48  89 N8        30.21R
MIDDLETON      CLEAR     54  52  92 N8        30.22R
WATERTOWN      CLEAR     53  50  91 N10       30.19R
MONROE         CLEAR     52  50  93 N7        30.19S
JANESVILLE     CLEAR     55  46  71 N8        30.16
$$

WIZ051-052-058>065-066-070>072-290500-
SOUTHEAST WISCONSIN

CITY           SKY/WX    TMP DP  RH WIND       PRES   REMARKS
MILWAUKEE      MOCLDY    60  54  80 N20G28    30.15R
WAUKESHA       CLEAR     54  50  87 N10G17    30.18R
MILWAUKEE/TIMM CLEAR     57  50  77 N14G22    30.16S
RACINE         MOCLDY    57  53  86 N17G24    30.14R
BURLINGTON     CLEAR     54  49  83 N7        30.14S
KENOSHA        CLOUDY    60  55  83 N16G26    30.12R
FOND DU LAC    PTCLDY    58  54  86 N16G22    30.23R
SHEBOYGAN      CLEAR     57  52  83 N12       30.20R
WEST BEND      CLEAR     54  52  94 N9G16     30.18S
JUNEAU         CLEAR     53  51  92 N10       30.21R
$$

LSZ147-162-290500-
LAKE SUPERIOR

STATION/POSITION TIME  TEMP    WIND        PRES    WAVE
                       AIR SEA DIR/SP/G            HT/PER
                 (UTC) (F)     (DEG/KT/KT) (MB)    (FT/S)
W MID LAKE BUOY  0250   55 54   40/  4/  6 1028.6R   2/ 6
DEVILS ISLAND    0300   53      50/  6/  7 1029.1R
PORT WING        0240   54      CALM  /  1 1028.4R
SAXON HARBOR     0320   54     170/  2/  4 1028.4R
$$

LMZ867-665-643>646-290500-
LAKE MICHIGAN

STATION/POSITION TIME  TEMP    WIND        PRES    WAVE
                       AIR SEA DIR/SP/G            HT/PER
                 (UTC) (F)     (DEG/KT/KT) (MB)    (FT/S)
CHAMBERS ISLAND  0300   59     350/ 21/ 24 1024.0S
N MID LAKE BUOY  0250   62 66  360/ 21/ 25 1023.3R   3/ 4
NORTHPORT PIER   0300   60      10/ 16/ 19 1024.4R
SISTER BAY       0323   58     360/ 15/ 22   N/A
KEWAUNEE LAKESHO 0300   58     360/  8/ 15 1022.7R
SHEBOYGAN LAKESH 0300   58      10/ 21/ 24 1021.7R
PORT WASHINGTON  0300   59     360/  8/ 14 1022.0R
ATWATER BUOY     0300   57 53   10/ 16/ 21 1020.3R
MILWAUKEE LAKESH 0310   59     350/ 18/ 21   N/A
S MID LAKE BUOY  0250   65 69   40/ 25/ 29 1017.4R   7/ 6
KENOSHA   LAKESH 0300   59     360/ 23/ 28 1019.0S
$$

TC  - TEMPERATURE IN CELSIUS
VSB - VISIBILITY IN STATUTE MILES
WCI - WIND CHILL INDEX
HX  - HEAT INDEX





USA.gov is the U.S. government's official web portal to all federal, state and local government web resources and services.